Location: Maddington
(51.2000°N, 1.9167°W)
Time: 15:24:06
(UTC+00:00)

Terra - Pass Details

Date: 18 September 2020
Orbit: 701 x 703 km, 98.2° (Epoch: 28 October)

Event Time Altitude Azimuth Distance (km) Brightness Sun altitude
Exits shadow 20:19:12 16° 57° (ENE) 1,795 3.6 -19.5°
Maximum altitude 20:19:19 16° 55° (NE) 1,794 3.7 -19.6°
Drops below altitude 10° 20:22:13 10° 17° (NNE) 2,184 4.5 -20.0°
Sets 20:25:14 0° 357° (N) 3,108 5.6 -20.4°
